Merced, CA

8:02 AM PDT on September 25, 2016 (GMT -0700)
Castle

Weather History for KMER - September, 2012

Change the Weather History Date:

Saturday, September 1, 2012

  Actual Average (KMCE) Record (KMCE)
Temperature  
Mean Temperature 68 °F 75 °F  
Max Temperature 86 °F 91 °F 103 °F (2007)
Min Temperature 51 °F 58 °F 51 °F (1999)
Degree Days  
Heating Degree Days 0    
Month to date heating degree days  
Since 1 July heating degree days  
Cooling Degree Days 4    
Month to date cooling degree days  
Year to date cooling degree days  
Growing Degree Days 18 (Base 50)    
Moisture  
Dew Point 52 °F    
Average Humidity 74    
Maximum Humidity 100    
Minimum Humidity 23    
Precipitation  
Precipitation 0.00 in 0.00 in 0.09 in (2000)
Month to date precipitation 0.00  
Year to date precipitation 8.70  
Snow  
Snow 0.00 in - - ()
Month to date snowfall  
Since 1 July snowfall  
Since 1 September snowfall  
Snow Depth -    
Sea Level Pressure  
Sea Level Pressure 29.95 in    
Wind  
Wind Speed 7 mph (North)    
Max Wind Speed 13 mph    
Max Gust Speed -    
Visibility 10 miles    
Events      
T = Trace of Precipitation, MM = Missing Value Source: NWS Daily Summary

Daily Weather History Graph

Daily Weather History Graph

Search for Another Location

Airport or City:

Trip Planner

Search our weather history database for the weather conditions in past years. The results will help you decide how hot, cold, wet, or windy it might be!

Date:

Astronomy

Sep. 01, 2012 Rise Set
Actual Time 6:33 AM PDT 7:30 PM PDT
Civil Twilight 6:06 AM PDT 7:56 PM PDT
Nautical Twilight 5:34 AM PDT 8:28 PM PDT
Astronomical Twilight 5:02 AM PDT 9:01 PM PDT
Moon 7:53 PM PDT (9/1) 7:43 AM PDT (9/1)
Length of Visible Light 13h 50m
Length of Day
12h 57m
Full, 98% of the Moon is Illuminated
Sep 1
Full
Sep 8
Last Quarter
Sep 15
New
Sep 22
First Quarter
Sep 29
Full

Hourly Weather History & Observations

Time (PDT) Temp. Dew Point Humidity Pressure Visibility Wind Dir Wind Speed Gust Speed Precip Events Conditions
12:15 AM 59.0 °F 50.0 °F 72% 29.93 in 10.0 mi North - - N/A   Clear
12:35 AM 57.2 °F 50.0 °F 77% 29.93 in 10.0 mi North - - N/A   Clear
12:55 AM 57.2 °F 51.8 °F 82% 29.93 in 10.0 mi North - - N/A   Clear
1:35 AM 55.4 °F 51.8 °F 88% 29.93 in 10.0 mi North - - N/A   Clear
1:55 AM 53.6 °F 51.8 °F 94% 29.93 in 10.0 mi North 5.8 mph - N/A   Clear
2:15 AM 53.6 °F 51.8 °F 94% 29.93 in 10.0 mi NNE 3.5 mph - N/A   Clear
2:55 AM 51.8 °F 51.8 °F 100% 29.93 in 7.0 mi NNE 5.8 mph - N/A   Clear
3:15 AM 55.4 °F 53.6 °F 94% 29.93 in 10.0 mi NE 8.1 mph - N/A   Clear
3:35 AM 55.4 °F 51.8 °F 88% 29.94 in 10.0 mi NNE 6.9 mph - N/A   Clear
3:55 AM 53.6 °F 51.8 °F 94% 29.94 in 9.0 mi NNE 5.8 mph - N/A   Clear
4:15 AM 55.4 °F 53.6 °F 94% 29.93 in 8.0 mi NNE 8.1 mph - N/A   Clear
4:35 AM 53.6 °F 51.8 °F 94% 29.93 in 7.0 mi North 6.9 mph - N/A   Clear
4:55 AM 53.6 °F 51.8 °F 94% 29.93 in 10.0 mi North 6.9 mph - N/A   Clear
5:15 AM 51.8 °F 51.8 °F 100% 29.94 in 10.0 mi North 6.9 mph - N/A   Clear
5:35 AM 53.6 °F 53.6 °F 100% 29.94 in 10.0 mi North 8.1 mph - N/A   Clear
5:55 AM 53.6 °F 53.6 °F 100% 29.94 in 10.0 mi North 6.9 mph - N/A   Clear
6:15 AM 51.8 °F 51.8 °F 100% 29.95 in 10.0 mi North - - N/A   Clear
6:35 AM 51.8 °F 51.8 °F 100% 29.96 in 10.0 mi North 8.1 mph - N/A   Clear
6:50 AM 51.8 °F 51.8 °F 100% 29.96 in 10.0 mi NNW 8.1 mph - N/A   Clear
6:55 AM 51.8 °F 51.8 °F 100% 29.97 in 9.0 mi North - - N/A   Clear
7:45 AM 57.2 °F 55.4 °F 94% 29.99 in 7.0 mi NNW 8.1 mph - N/A   Clear
8:45 AM 62.6 °F 51.8 °F 68% 30.00 in 7.0 mi NNW 12.7 mph - N/A   Clear
9:45 AM 66.2 °F 53.6 °F 64% 30.01 in 10.0 mi NNW 8.1 mph - N/A   Clear
10:45 AM 69.8 °F 51.8 °F 53% 30.02 in 10.0 mi North 8.1 mph - N/A   Clear
11:45 AM 73.4 °F 50.0 °F 44% 30.01 in 10.0 mi WNW 6.9 mph - N/A   Clear
12:45 PM 78.8 °F 50.0 °F 36% 29.99 in 10.0 mi NW 9.2 mph - N/A   Clear
1:45 PM 80.6 °F 48.2 °F 32% 29.98 in 10.0 mi North 6.9 mph - N/A   Clear
2:45 PM 82.4 °F 46.4 °F 28% 29.96 in 10.0 mi NW 9.2 mph - N/A   Clear
3:45 PM 84.2 °F 44.6 °F 25% 29.94 in 10.0 mi WNW 5.8 mph - N/A   Clear
4:45 PM 86.0 °F 44.6 °F 23% 29.92 in 10.0 mi NNW 6.9 mph - N/A   Clear
5:45 PM 84.2 °F 44.6 °F 25% 29.92 in 10.0 mi NNW 9.2 mph - N/A   Clear
7:45 PM 73.4 °F 50.0 °F 44% 29.92 in 10.0 mi NW 11.5 mph - N/A   Clear
8:45 PM 69.8 °F 53.6 °F 56% 29.94 in 10.0 mi NNW 9.2 mph - N/A   Clear
9:15 PM 66.2 °F 53.6 °F 64% 29.94 in 10.0 mi North 8.1 mph - N/A   Clear
9:55 PM 64.4 °F 53.6 °F 68% 29.94 in 10.0 mi North 6.9 mph - N/A   Clear
10:15 PM 64.4 °F 53.6 °F 68% 29.94 in 10.0 mi North 6.9 mph - N/A   Clear
10:35 PM 64.4 °F 53.6 °F 68% 29.94 in 10.0 mi North 5.8 mph - N/A   Clear
10:55 PM 64.4 °F 53.6 °F 68% 29.94 in 10.0 mi North - - N/A   Clear
11:15 PM 62.6 °F 53.6 °F 72% 29.94 in 10.0 mi North - - N/A   Clear
11:35 PM 60.8 °F 53.6 °F 77% 29.94 in 10.0 mi North - - N/A   Clear
11:55 PM 60.8 °F 53.6 °F 77% 29.94 in 10.0 mi North - - N/A   Clear